Regional Weather Roundup
Issued by NWS

Home | Current Version | Previous Version | Graphics & Text | Print | Product List | Glossary On
Versions: 1 2 3 4 5 6 7 8 9 10 11 12 13 14 15 16 17 18 19 20 21 22 23 24 25 26 27 28 29 30 31 32 33 34 35 36 37 38 39 40 41 42 43 44 45 46 47 48 49 50
000
ASUS45 KSLC 271710
RWRUT

UTAH REGIONAL WEATHER ROUNDUP
NATIONAL WEATHER SERVICE SALT LAKE CITY UT
1000 AM MST SAT DEC 27 2014

UTZ001>011-023>025-271800-

NORTHERN UTAH

CITY           SKY/WX    TMP DP  RH WIND       PRES   REMARKS
BRIGHAM CITY   MOSUNNY   13   9  85 CALM      30.40R
HILL AFB       SUNNY     17   8  66 E12       30.35R WCI   5
LOGAN          CLOUDY     8   4  83 N3        30.38R
OGDEN          MOSUNNY   19  11  70 S9        30.35R WCI   8
PROVO AIRPORT  MOSUNNY   18  10  73 SE9       30.39R WCI   6
SALT LAKE CITY MOSUNNY   22  14  71 S10       30.37R WCI  11
VERNAL         CLOUDY    17  12  80 CALM      30.33R HAZE
WENDOVER       SUNNY     25  10  54 S6        30.38R WCI  18
HEBER CITY     LGT SNOW  10   9  92 CALM      30.34R
WEST JORDAN    SUNNY     21  18  86 S10       30.36R WCI  10

$$

UTZ012>022-026-027-271800-

SOUTHERN/CENTRAL UTAH

CITY           SKY/WX    TMP DP  RH WIND       PRES   REMARKS
BLANDING       SUNNY     24  13  65 S5        30.34R WCI  18
BRYCE CANYON   SUNNY     12   5  73 NE8       30.24R WCI   0
CEDAR CITY     SUNNY     12   4  70 E5        30.32R WCI   4
DELTA          SUNNY     14  11  86 CALM      30.38R
MILFORD        SUNNY      3   1  91 S6        30.36R WCI  -8
MOAB/CYNLANDS  SUNNY     19  12  74 CALM      30.34R
PRICE          SUNNY     23   2  40 CALM      30.27R
ST GEORGE      SUNNY     32  10  40 CALM      30.43R
KANAB          SUNNY     28   5  37 NW8       30.37R WCI  20

$$

REGIONAL REPORTS     COLORADO/ARIZONA

CITY           SKY/WX    TMP DP  RH WIND       PRES   REMARKS
CRAIG, CO      LGT SNOW   7   3  84 CALM      30.28R FOG
GRAND JUNCTION SUNNY     17  11  77 E5        30.35R WCI  10
RIFLE          SUNNY     15   7  70 CALM      30.33R
MONTROSE       CLOUDY    21  12  68 CALM      30.33R
CORTEZ         SUNNY     19   7  59 NE5       30.27R WCI  12
PAGE, AZ       SUNNY     31   5  33 CALM      30.35R
GRAND CANYON   SUNNY     24   9  52 NE14      30.26R WCI  12
KINGMAN        SUNNY     34  14  43 N6        30.34R WCI  29
FLAGSTAFF      SUNNY     22  12  65 E15G21    30.22R WCI   9

$$

REGIONAL REPORTS    NEVADA/IDAHO/WYOMING

CITY           SKY/WX    TMP DP  RH WIND       PRES   REMARKS
LAS VEGAS, NV  MOSUNNY   42  11  28 N5        30.38R
ELY            MOSUNNY   11   6  81 S10       30.32R WCI  -3
ELKO           MOSUNNY   16  11  80 CALM      30.35R
POCATELLO, ID  CLOUDY    23  18  81 S5        30.30S WCI  17
BURLEY         PTSUNNY   25  16  68 SW12      30.30R WCI  14
EVANSTON, WY   SUNNY      9   7  92 SW13      30.20S WCI  -7
ROCK SPRINGS   SUNNY      9   3  77 W18       30.17R WCI -10
KEMMERER       FLURRIES   7   3  85 W9        30.17R WCI  -7

$$


USA.gov is the U.S. government's official web portal to all federal, state and local government web resources and services.